INTELSAT 29E (IS-29E) (41308 NORAD) Tracking and Keplerian Element Data

This shows tracking and keplerian element data for the satellite.

Feedback or suggestion? Click here.




ElementValue
Catalog41308
NameINTELSAT 29E (IS-29E)
Epoch Orbit921
Epoch Day201.31107619
Epoch Year2018
RAAN28.839
Inclination0.0044
Eccentricity0.0001902
Argument of Perigee75.0327
Mean Anonmoly256.1495
Mean Motion1.00271956
Decay Rate-2.98E-06
L11 41308U 16004A 18201.31107619 -.00000298 00000-0 00000-0 0 9997
L22 41308 0.0044 28.8390 0001902 75.0327 256.1495 1.00271956 9217

Live tracking and technical data element details for INTELSAT 29E (IS-29E) (NORAD 41308). INTELSAT 29E (IS-29E) can be tracked NOW for your location showing map with azimuth and elevation plus other details from your city location.

Track the satellite on the map from your city or location and see movement details for azimuth, elevation, latitude, longitude, range, height, and movement on the map or in text.







IsCatalogInMostPopularTable: catalog: 41308, numindb: 72
Update: records affected: 1



GetName: 41308 INTELSAT 29E (IS-29E)

Hit Count: updated at: Sat, 21 Jul 2018 07:47:48 GMT